UFO 11 (USA 174)

Last updated on Tue Sep 22 2026 00:03:10 GMT+0000 (Coordinated Universal Time)

1 28117U 03057A 26264.60847843 -.00000101 00000+0 00000+0 0 9995 2 28117 9.0374 33.3044 0003861 161.8757 99.7707 1.00271451 83410
UTC large
Height (km)
Speed (km/s)
/
Latitude / Longitude
Inclination (degrees)
Orbital Period (minutes)
Azimuth
Elevation
Range (km)
Doppler Factor

Next 0 passes for location: London (51.5072 / 0.1276)

No passes found over London.
UFO 11 (USA 174)